Theta_e
332 331 332 331 331 332 333 334 336 337 336 336 337 337 336 335 335 335 335 337 336 335 336 336 336 335 334 334 333 333 333 333 334 334 333 334 333 333 333 333 333 334 333 333 332 332 332 331 331 330 330 331 331 331 332 331 331 332 331 331 332 332 331 329 328 328 328 327 327 328 328 328 328 328 329 329 331 331 330 329 329 329 329 330 330
333 332 332 331 331 332 334 335 336 336 336 336 336 336 336 335 335 335 335 335 336 335 336 336 336 335 334 334 333 333 333 333 333 333 333 333 333 333 333 333 333 333 334 333 332 332 331 331 330 330 330 330 331 331 332 331 331 332 331 330 331 331 331 329 328 328 328 327 326 326 327 327 327 328 328 328 329 330 330 329 330 329 329 330 330
335 333 332 331 331 333 335 336 336 336 335 335 336 336 336 335 334 334 335 335 336 336 336 336 336 335 335 335 334 334 333 333 333 332 333 333 333 334 334 334 333 333 333 332 332 331 331 331 330 330 330 330 331 331 331 330 330 331 331 330 331 331 331 329 328 328 328 327 327 328 328 328 328 327 327 328 328 328 329 329 330 330 329 329 330
335 333 332 332 332 334 335 335 336 335 335 335 335 335 335 335 335 334 335 336 336 336 336 335 335 334 334 335 334 333 332 332 332 332 333 334 334 334 334 333 333 332 332 331 331 331 330 330 329 329 330 329 330 330 330 330 330 331 331 330 330 331 331 330 329 329 329 328 328 327 326 327 329 328 327 328 328 328 328 328 329 329 328 329 330
335 333 332 332 332 334 335 335 335 334 335 335 335 335 335 335 335 335 335 335 335 336 334 333 334 334 333 333 332 331 331 331 332 333 334 334 333 333 333 332 331 330 330 330 329 329 328 328 328 328 328 328 328 329 330 330 330 330 330 330 330 330 331 331 330 330 329 328 328 327 328 330 329 327 326 327 327 327 328 328 329 329 329 329 329
333 332 332 332 333 334 334 335 335 334 334 335 335 334 334 334 335 335 335 334 334 334 333 334 334 333 332 332 331 330 330 331 332 332 333 333 332 332 331 330 329 328 327 326 326 326 326 326 327 327 327 327 327 327 328 328 329 329 329 328 329 330 330 330 330 329 328 328 327 327 329 330 327 326 327 327 326 326 327 328 328 328 328 327 327
332 331 331 332 333 333 333 335 335 335 334 334 335 334 334 334 334 335 334 334 333 332 333 334 333 332 332 332 331 330 330 330 330 330 330 330 330 329 328 327 326 326 325 324 325 325 326 326 326 326 325 325 326 326 327 327 327 327 327 328 328 329 330 330 329 328 328 328 328 327 328 328 326 326 327 327 327 327 326 327 327 327 327 326 326
332 331 331 332 333 332 333 334 334 334 334 334 334 333 333 334 334 334 334 333 333 333 333 333 331 330 331 331 331 330 329 329 328 328 328 327 327 327 326 326 326 325 325 324 325 325 325 326 326 325 325 325 325 326 326 326 326 327 327 327 328 328 329 329 329 328 328 329 329 328 328 327 326 326 326 326 327 327 326 327 327 327 327 327 327
331 331 331 332 333 333 333 334 334 334 334 334 333 333 333 334 334 334 333 333 333 333 333 332 330 330 330 330 330 330 329 329 328 328 327 327 327 327 327 326 326 325 325 325 325 325 325 325 325 325 325 325 325 325 326 326 326 326 326 327 327 328 329 329 328 329 329 329 328 327 327 326 326 326 325 325 325 326 327 326 326 326 326 326 326
330 330 331 332 333 333 333 334 334 334 334 334 334 333 333 334 334 334 334 334 333 333 332 331 330 329 330 330 330 330 329 328 328 328 328 327 328 328 327 325 324 324 325 324 324 324 325 325 325 325 325 325 324 323 324 326 326 326 326 327 327 327 328 328 328 329 329 329 328 327 326 326 325 325 325 325 324 324 326 325 325 326 325 325 326
330 330 330 333 333 332 333 333 334 334 334 334 334 334 334 333 334 334 334 334 333 332 332 331 330 328 329 329 329 329 328 327 326 326 326 326 327 328 325 324 323 323 324 324 323 323 324 324 324 324 324 324 324 323 324 326 326 326 326 326 326 327 327 327 327 328 328 328 328 327 327 326 326 325 325 325 323 322 324 325 324 325 325 325 325
330 330 331 332 333 332 332 332 333 334 333 333 334 334 334 333 333 334 333 334 333 331 330 330 331 329 328 328 327 326 326 326 325 324 324 325 327 326 324 323 323 322 322 323 322 322 323 324 323 321 322 322 323 323 324 326 325 325 325 324 324 325 326 326 327 327 327 327 327 327 328 327 327 326 325 325 324 324 324 324 323 324 325 324 322
331 330 331 332 333 332 331 332 332 333 333 333 333 333 333 333 332 333 334 334 332 330 329 329 331 330 328 326 325 324 325 325 324 324 324 325 325 324 323 322 322 321 321 322 322 322 323 323 320 318 320 322 323 323 324 324 324 323 321 320 319 320 322 323 324 324 325 325 325 326 327 327 327 326 325 325 325 324 324 322 322 323 323 322 322
332 330 331 331 332 331 331 332 332 333 333 333 333 333 333 332 332 333 334 333 332 330 328 327 329 329 327 325 324 324 325 325 324 323 323 323 322 321 320 320 320 321 321 322 323 322 321 320 318 318 319 321 322 322 323 323 321 319 317 316 316 317 318 319 320 320 320 321 323 324 325 326 326 326 326 325 325 325 324 322 322 322 323 322 322
332 331 331 330 331 331 331 332 332 332 333 332 332 332 332 332 332 333 334 332 331 330 327 326 326 326 326 324 324 325 325 325 325 324 322 322 320 319 319 318 319 319 320 321 321 320 319 319 319 319 319 320 321 321 321 322 320 317 315 315 315 315 316 317 317 318 319 321 322 324 325 325 326 326 325 325 325 324 323 323 322 322 322 319 318
333 333 331 330 331 331 331 332 332 332 333 332 332 332 332 332 331 333 333 331 331 331 328 326 325 325 325 324 325 325 324 324 325 323 322 322 321 319 319 319 319 319 319 320 320 319 319 319 319 319 318 319 320 319 319 320 320 317 315 315 314 314 315 316 317 318 320 322 323 324 325 325 326 326 325 325 324 323 322 321 321 322 322 319 317
333 334 332 331 331 330 331 332 332 332 332 332 332 332 332 331 331 332 332 331 332 331 328 326 325 325 324 324 325 324 323 324 325 323 322 321 320 320 319 319 319 318 318 319 319 319 319 319 319 318 318 317 318 317 316 318 319 317 315 315 314 314 314 315 316 317 318 320 321 322 323 325 325 325 325 324 323 322 321 320 319 319 319 319 320
333 333 332 332 330 330 331 331 332 332 332 332 332 331 331 330 331 332 331 331 331 330 329 328 326 326 325 324 324 323 323 325 325 323 322 320 320 320 319 319 319 318 318 318 319 318 318 318 318 318 318 316 315 314 314 316 317 316 315 315 314 313 313 314 315 315 315 316 318 319 321 323 324 324 324 323 322 321 321 320 319 318 316 318 320
330 331 332 332 331 330 331 331 332 332 332 332 332 331 331 330 331 331 330 331 331 330 329 328 327 327 326 324 324 324 324 325 324 323 322 321 320 320 319 318 318 317 317 317 318 318 317 317 318 318 316 314 313 313 314 315 316 315 315 314 313 312 313 313 314 314 313 314 316 317 319 321 323 323 322 322 321 321 321 320 320 319 317 316 316
328 328 328 327 327 327 328 329 330 330 331 332 331 331 331 331 330 330 329 331 331 330 329 328 328 328 326 324 324 324 324 324 324 323 322 321 321 320 318 317 316 316 316 315 316 317 317 316 316 316 314 313 314 314 314 314 315 315 314 313 313 314 313 312 313 313 313 313 313 314 316 319 321 322 321 321 321 321 321 321 321 320 319 317 315
327 326 326 325 324 323 323 325 327 328 329 330 331 331 330 330 329 327 328 330 330 330 328 328 328 327 326 324 324 324 323 323 323 323 322 321 321 320 317 316 316 317 316 315 314 316 316 315 315 314 314 314 314 314 314 313 314 315 314 314 314 315 315 314 313 313 313 313 313 313 314 315 317 318 319 319 319 319 319 320 321 321 320 318 317
325 325 326 324 323 323 323 325 326 326 326 327 328 330 328 326 325 326 328 330 329 329 328 327 327 327 327 325 324 323 323 323 323 322 322 321 320 319 317 317 318 317 316 315 314 315 316 315 315 314 314 314 313 314 314 314 313 314 314 314 315 314 314 315 314 314 313 313 313 313 313 314 314 314 315 315 315 315 316 316 318 320 320 319 318
325 325 324 323 323 323 324 324 325 325 325 324 325 326 325 325 326 327 328 328 328 328 328 327 327 326 326 325 324 324 323 323 323 322 322 321 320 318 317 318 318 317 315 314 314 315 316 316 315 315 314 314 315 315 315 315 314 314 315 315 315 314 313 314 314 313 313 313 313 314 314 313 313 313 313 314 314 314 315 315 316 318 320 320 318
325 325 324 323 324 325 324 324 324 325 324 323 324 324 325 327 328 328 328 328 328 328 327 327 327 326 325 324 324 323 323 323 323 323 322 321 319 318 318 318 318 316 314 315 316 315 315 316 316 316 316 316 316 316 315 315 315 315 316 316 316 315 314 314 314 313 313 313 313 314 315 314 313 313 313 314 314 314 315 314 315 317 318 318 317
324 324 324 324 324 325 325 325 324 324 323 323 323 324 326 327 327 327 327 328 328 328 327 326 326 325 324 324 324 323 323 323 322 322 321 320 319 318 318 318 318 316 316 316 317 315 316 317 317 316 316 316 316 317 316 316 317 317 317 316 316 315 315 315 315 315 315 315 314 314 315 315 314 313 313 313 314 314 313 313 313 313 314 314 314
321 321 322 322 321 321 322 322 324 324 324 324 324 323 324 324 325 326 325 326 328 327 325 325 325 325 324 324 324 323 322 322 322 321 321 319 319 319 318 319 317 316 317 316 316 316 317 318 318 316 317 317 317 317 317 317 318 319 319 317 315 316 316 316 316 315 316 316 317 316 317 317 316 314 313 314 314 314 313 312 312 311 311 311 310
313 314 315 314 314 314 315 317 321 323 324 324 324 324 324 323 324 324 323 324 326 324 323 324 325 324 323 323 323 322 321 320 319 319 318 318 319 320 319 319 318 316 317 317 317 317 318 319 318 317 318 319 319 319 320 318 318 320 320 318 316 317 318 318 318 317 317 318 318 318 318 318 318 316 315 314 314 315 315 315 314 314 313 312 311
308 308 308 308 309 310 310 311 315 319 322 324 324 324 324 324 324 324 322 322 322 322 323 324 324 323 322 322 322 321 321 320 317 316 317 318 319 320 319 318 318 317 317 318 319 319 319 320 319 318 319 320 320 321 321 319 319 320 320 319 318 319 320 320 320 319 318 319 319 320 319 319 319 319 318 317 316 315 316 316 316 316 316 315 314
306 306 306 306 306 307 308 308 309 312 317 321 323 323 324 324 324 324 323 322 322 322 322 322 321 321 321 320 320 320 320 320 316 315 320 321 319 320 319 319 319 318 317 318 319 319 320 320 320 319 320 321 321 321 322 321 321 321 321 321 321 321 321 321 321 320 320 320 320 320 320 320 320 320 319 319 318 317 315 315 316 316 317 317 316
305 305 305 305 305 306 306 307 307 308 313 319 322 322 322 323 322 323 323 323 322 322 322 321 320 321 320 320 320 320 320 319 317 318 321 321 319 320 319 319 319 319 319 319 320 320 320 320 320 320 320 321 321 321 322 322 322 322 322 323 322 322 322 321 321 321 321 321 321 320 320 320 321 320 320 320 320 318 316 315 315 316 316 316 316
305 305 305 304 304 305 305 305 306 307 310 315 319 321 321 321 321 321 322 323 322 322 322 321 321 322 322 320 320 321 322 321 321 321 322 321 320 319 317 316 317 318 319 319 319 320 320 320 320 321 321 321 321 321 322 323 323 323 323 323 323 323 323 322 321 320 320 320 320 320 320 320 320 321 320 320 320 319 318 316 316 316 316 316 316
305 304 304 304 303 304 304 305 305 306 307 310 313 317 318 318 320 320 321 322 322 321 321 321 322 323 323 321 320 320 321 321 320 320 320 320 317 315 314 316 318 319 319 318 318 319 320 320 321 321 321 321 321 321 321 322 322 323 322 323 322 322 322 321 321 320 319 319 319 320 320 320 320 320 320 320 320 319 318 317 317 317 317 317 317
305 304 304 304 304 304 304 304 304 305 305 305 307 309 309 311 314 317 319 320 321 321 321 321 321 322 322 322 322 321 320 321 321 321 321 320 317 315 316 319 320 319 319 319 319 319 320 320 321 321 321 321 320 320 320 319 320 321 321 320 321 321 321 320 320 320 319 318 319 320 320 320 320 320 320 320 320 319 319 318 318 317 317 317 316
304 304 304 304 304 304 304 304 304 303 304 304 303 304 304 304 306 308 311 313 315 316 318 319 320 321 321 321 321 321 321 320 321 321 322 322 321 319 320 320 320 320 319 319 319 319 320 320 320 320 320 320 320 319 319 319 319 319 319 319 319 320 321 320 320 319 319 318 319 320 320 320 321 320 319 319 320 319 318 317 315 315 315 315 315
303 303 303 303 303 303 303 303 303 303 303 303 302 302 302 302 302 303 303 304 306 307 309 311 314 316 318 320 320 321 321 320 319 320 320 321 320 320 320 320 320 320 320 320 320 320 320 320 320 320 320 320 320 320 320 319 319 319 318 318 319 320 321 320 319 318 318 319 319 320 320 321 321 320 319 319 318 317 314 311 310 311 311 311 312
303 303 303 303 303 303 303 303 303 303 302 302 302 302 301 301 302 302 301 302 302 303 303 304 305 307 310 313 315 317 318 319 319 319 320 320 319 319 320 320 320 320 320 320 320 321 321 320 319 319 319 319 320 320 320 319 319 318 318 317 318 320 320 320 319 318 317 318 320 320 320 320 320 319 317 316 314 312 310 308 308 309 308 308 308
303 302 302 302 302 302 302 302 302 302 302 302 302 302 301 301 300 301 301 301 301 301 301 302 302 302 303 305 307 309 311 312 314 315 317 319 320 320 320 319 320 320 320 319 319 319 320 319 319 319 319 319 319 319 320 319 318 317 317 318 319 319 320 319 319 318 317 318 320 321 320 319 318 317 315 314 313 312 310 309 309 309 309 308 308
302 302 301 301 301 301 301 301 301 301 301 301 302 302 302 300 300 300 300 300 300 300 300 301 301 301 301 302 303 304 304 305 305 306 308 312 316 319 320 320 320 320 320 320 320 320 320 320 320 319 319 319 319 319 318 318 318 318 318 319 319 319 319 318 318 317 317 319 321 321 320 319 317 316 316 315 314 313 312 311 311 310 310 309 308
301 301 301 300 300 300 300 300 300 300 300 301 301 302 301 300 299 300 299 299 299 299 299 300 300 301 301 301 302 302 303 303 302 302 303 304 307 311 315 319 320 320 321 321 321 320 320 320 320 319 319 319 319 318 318 318 318 318 319 319 319 317 317 317 317 317 318 319 320 321 321 319 316 316 316 316 315 313 312 311 311 310 310 309 308
300 299 300 299 300 300 300 300 299 299 300 300 300 300 300 299 299 299 299 298 298 298 299 299 299 300 300 300 301 301 302 302 302 302 302 302 302 303 306 309 313 316 318 320 320 320 320 320 319 319 319 319 319 319 318 318 318 318 318 318 316 314 314 316 316 317 317 318 319 320 320 319 316 315 316 316 314 312 311 311 310 310 310 309 307
298 298 298 298 299 299 299 299 299 299 299 299 299 298 298 298 298 298 298 297 297 298 298 298 298 298 299 299 299 300 300 301 301 301 302 302 302 302 302 303 304 307 310 312 314 316 318 319 320 319 318 318 318 318 317 317 316 316 316 316 314 312 313 315 316 316 316 317 318 320 320 318 316 315 315 314 311 310 309 308 309 309 309 309 308
298 298 298 298 298 298 298 297 298 298 298 298 298 297 297 297 297 297 297 297 297 297 297 297 297 297 297 298 298 299 299 299 300 300 301 301 301 301 302 302 302 303 304 305 307 309 312 315 317 318 319 318 317 316 315 315 313 310 309 309 309 310 313 315 315 316 316 316 316 318 318 317 315 314 312 308 305 304 305 306 307 308 309 308 308
298 298 298 298 298 297 297 297 297 297 297 297 297 297 296 296 296 296 296 296 296 296 296 296 296 296 296 296 297 297 298 298 298 299 299 300 300 300 300 301 301 302 303 303 304 305 307 308 311 313 316 317 317 315 313 311 309 306 305 304 306 310 313 314 314 315 315 315 315 316 317 315 313 310 306 302 301 301 303 306 308 308 308 307 306
297 298 298 298 297 296 296 296 296 296 296 296 296 296 296 296 295 296 296 296 296 296 296 296 296 296 296 296 296 296 296 297 297 297 298 299 299 299 299 300 300 301 301 302 303 303 303 304 306 308 311 313 315 316 314 311 308 306 304 303 305 308 311 313 314 314 314 315 314 315 315 313 310 306 302 300 301 302 304 306 306 306 305 304 302
297 297 297 297 297 296 295 295 295 296 296 296 296 296 295 295 295 295 295 295 295 295 295 295 295 295 295 295 295 296 296 296 296 297 297 298 298 298 299 299 299 300 300 301 301 302 302 302 302 304 306 307 309 312 313 313 312 309 305 303 304 306 308 310 312 313 313 314 313 313 313 310 307 304 301 301 302 303 304 304 304 303 303 302 300
296 296 296 296 296 295 295 295 294 295 295 295 295 295 294 294 295 295 295 295 295 295 295 295 294 294 294 295 295 295 295 295 296 296 296 297 297 298 298 298 298 299 300 300 300 301 301 300 301 301 302 303 304 306 308 311 312 311 307 303 302 304 305 307 309 310 311 311 312 311 310 307 304 302 302 302 303 303 303 303 302 302 302 301 299
296 296 296 296 296 295 295 295 294 294 295 295 295 295 294 294 294 294 294 295 295 295 295 294 294 294 294 294 294 294 295 295 295 295 295 296 296 296 297 297 298 298 299 300 300 300 299 300 301 301 301 301 302 303 305 307 309 310 308 304 302 302 303 304 306 307 308 308 308 308 306 304 302 302 302 302 302 303 302 302 301 300 300 299 298
296 296 296 296 296 295 294 294 294 294 294 294 294 294 294 294 294 293 294 294 294 294 293 293 293 293 293 294 294 294 294 294 294 294 294 295 295 295 296 296 297 298 298 299 299 300 300 300 300 301 301 301 302 302 303 305 306 307 307 306 304 301 301 302 304 305 306 305 304 303 302 301 301 301 301 300 300 301 300 299 299 298 298 298 298
296 296 296 295 295 295 295 294 294 294 294 293 293 293 293 293 293 293 293 293 293 293 292 292 292 292 293 293 293 293 294 294 294 294 294 294 294 295 295 296 296 297 298 298 298 299 300 300 300 301 300 300 302 302 303 305 306 306 307 307 305 302 301 302 302 303 304 304 303 301 299 298 297 298 298 297 298 298 297 297 297 298 297 298 297
296 296 296 295 295 295 295 294 294 293 293 293 293 292 292 292 292 292 292 292 292 292 292 291 291 292 292 293 293 293 293 293 293 294 294 294 294 294 295 295 295 296 297 297 298 298 299 300 300 301 300 300 301 302 303 304 305 306 306 306 305 304 303 302 300 301 302 303 303 301 299 298 297 298 297 296 296 296 296 297 297 298 297 297 297
296 296 295 295 295 295 294 294 293 293 293 293 292 292 292 292 292 292 292 292 292 291 291 291 291 292 292 292 292 292 292 292 293 294 295 295 295 295 295 295 295 295 296 297 297 298 299 300 300 300 301 301 301 302 303 304 305 305 305 305 304 304 304 302 300 301 302 303 302 300 299 299 300 299 298 298 298 297 297 297 298 298 297 297 297
Wind_Speed
9 15 13 9 12 15 17 19 18 19 22 23 22 22 23 23 24 25 27 28 28 26 25 23 22 20 18 16 15 13 12 12 13 12 12 12 12 11 12 13 13 13 13 12 10 9 9 9 9 9 10 10 9 9 9 9 8 10 10 10 9 9 10 9 10 13 14 15 15 15 16 13 9 7 6 5 5 6 6 8 9 9 9 9 9
7 9 8 9 12 14 16 17 19 21 22 23 23 23 23 22 23 25 26 27 27 27 26 24 22 20 19 17 15 13 12 12 12 12 12 13 13 13 13 14 13 12 12 11 10 9 10 10 9 10 10 10 10 9 9 9 9 9 10 11 10 9 10 10 11 10 9 12 13 12 13 14 13 10 9 7 4 2 3 4 5 7 10 8 6
7 7 7 10 12 14 15 15 18 21 22 23 23 23 23 22 23 24 25 25 25 25 25 23 21 19 17 17 15 13 13 12 11 11 13 15 15 14 13 13 12 12 11 10 9 9 9 9 10 10 10 10 10 10 10 10 10 8 8 11 11 10 8 10 12 6 7 14 12 7 3 5 8 10 10 9 6 4 2 1 2 3 6 7 5
10 8 7 9 12 12 12 14 17 19 20 22 24 25 25 24 24 24 25 25 24 24 23 21 20 17 15 15 14 13 14 13 12 13 15 16 15 13 12 11 11 11 11 10 10 11 11 10 10 10 10 9 9 9 9 9 10 8 7 9 11 11 8 10 10 7 9 13 7 3 2 2 2 4 7 9 8 6 5 4 3 2 3 3 4
11 11 8 8 10 10 12 15 18 18 19 22 24 25 26 25 25 25 24 24 24 24 22 19 18 17 16 16 14 13 14 15 15 16 16 15 13 12 11 11 12 13 13 13 13 13 13 12 11 10 9 8 7 7 8 8 8 7 7 8 10 12 9 10 10 8 11 10 4 4 3 1 2 3 5 7 8 7 6 5 3 2 2 2 3
9 8 6 8 9 10 13 15 17 18 18 21 24 25 26 26 26 25 24 23 23 23 21 19 18 18 19 19 18 18 17 17 17 18 16 14 13 13 14 14 14 15 14 13 13 13 12 12 11 10 9 8 7 7 7 6 6 6 7 8 10 12 11 11 10 10 13 9 4 5 1 1 7 7 3 3 6 8 7 5 4 2 3 3 3
6 4 4 7 8 9 12 15 18 18 18 21 24 24 25 26 26 26 25 23 22 21 20 19 19 19 21 22 22 22 21 19 18 17 16 15 16 16 16 15 14 13 12 11 11 11 11 11 10 9 8 7 6 7 7 6 5 6 6 8 10 12 13 14 12 13 14 8 7 7 4 3 12 9 4 3 4 5 8 8 7 6 5 6 6
5 4 5 7 8 10 11 15 18 18 19 22 24 24 25 26 26 26 25 23 22 21 20 20 20 21 23 22 22 23 22 20 19 18 18 18 18 17 16 14 13 12 10 9 9 9 9 9 9 9 8 7 7 7 7 6 5 5 6 8 10 12 13 14 14 15 14 8 5 5 3 8 12 9 9 9 5 3 5 7 8 9 8 8 8
4 5 7 8 10 13 15 16 18 19 21 23 24 24 25 25 26 26 25 24 22 21 20 20 22 24 24 23 22 22 21 20 19 18 19 19 19 17 15 14 13 11 10 8 7 7 7 8 8 9 9 9 8 7 7 6 5 5 6 9 10 12 12 12 13 14 13 9 6 7 10 13 10 9 12 12 8 4 3 2 7 11 9 9 8
5 5 6 8 10 15 17 17 19 20 21 22 23 24 25 25 26 25 25 24 22 21 20 21 24 25 25 25 24 23 22 21 19 18 18 19 19 17 15 14 13 12 11 9 7 6 8 9 9 10 10 9 8 6 6 7 6 5 6 9 10 11 11 11 11 12 11 9 8 11 15 15 10 9 11 13 11 7 4 3 7 9 7 8 10
5 6 7 9 11 17 19 17 19 21 21 22 23 23 25 24 24 24 23 23 21 19 19 21 24 25 26 26 26 24 23 22 21 20 19 19 20 19 17 15 14 12 11 10 8 7 10 11 10 10 9 8 7 6 7 7 7 6 7 9 10 11 12 11 11 10 9 8 8 10 15 15 10 9 13 15 12 9 7 5 8 11 8 9 10
5 6 8 8 9 14 18 16 18 22 22 22 22 22 23 23 23 23 21 21 20 17 18 20 23 25 25 25 24 24 23 22 21 21 21 21 22 21 18 16 14 12 10 9 9 9 12 12 10 9 8 9 9 8 8 8 7 7 7 8 9 10 10 10 10 9 7 7 7 8 12 13 10 11 17 17 14 18 16 8 9 11 9 9 10
6 7 7 7 6 9 15 17 18 22 22 21 21 21 21 22 22 22 21 20 19 18 18 21 23 24 24 23 22 22 22 20 20 21 22 22 22 21 18 16 14 12 10 9 11 13 14 13 10 9 9 9 9 9 9 8 7 7 7 8 8 8 9 9 9 8 6 6 7 7 10 12 9 10 16 15 17 25 22 13 10 11 10 9 8
7 6 7 8 6 8 15 18 18 20 22 22 22 21 21 22 22 22 21 20 19 19 20 22 24 25 24 23 22 21 21 19 20 21 21 20 20 19 17 16 14 13 11 11 14 16 14 12 11 10 9 8 9 9 9 8 8 8 9 10 10 10 10 10 9 8 7 6 6 6 9 12 10 10 14 16 20 25 23 18 14 11 11 9 6
5 5 7 8 7 10 15 18 18 19 21 23 23 23 22 23 23 22 22 22 21 21 22 23 24 25 25 23 22 22 21 20 20 20 19 19 19 18 16 15 14 13 13 13 15 16 13 12 12 10 9 8 9 9 8 9 9 10 12 12 13 13 12 12 11 9 8 6 5 5 6 8 9 11 14 17 23 27 25 25 22 12 6 5 4
2 3 5 6 7 10 12 15 17 18 21 23 24 24 23 23 23 23 24 23 23 23 23 23 24 24 24 24 24 24 23 23 22 20 19 19 18 17 16 15 14 14 14 13 14 14 13 13 12 10 9 9 8 8 9 10 10 11 12 12 12 13 12 13 13 11 10 8 7 6 7 8 10 11 13 18 24 25 23 26 26 20 10 4 3
3 2 3 5 6 9 9 10 13 15 18 21 23 23 24 24 24 23 24 23 22 22 22 22 22 22 23 24 25 25 25 24 23 21 20 19 18 17 16 16 15 13 13 13 12 13 13 13 12 11 10 8 8 8 9 12 13 12 12 11 11 11 11 13 13 13 12 10 9 9 9 11 12 12 14 20 24 23 22 23 22 22 19 10 3
4 3 2 3 5 6 5 5 9 13 16 19 21 22 22 24 26 25 24 23 22 21 21 20 21 21 23 24 25 25 25 24 23 21 21 20 19 17 17 16 15 13 13 13 12 11 12 12 12 11 10 8 9 9 11 13 14 13 12 11 10 10 11 12 13 13 14 12 10 9 10 11 13 14 17 21 22 21 21 21 18 17 16 11 8
5 4 4 3 2 3 4 4 5 9 13 16 17 18 19 20 22 24 25 24 22 21 21 20 21 22 23 24 25 25 25 24 22 21 21 20 18 17 16 15 14 13 12 12 12 12 12 12 12 11 10 10 10 10 11 13 14 13 12 11 10 11 12 13 13 13 14 14 12 10 10 12 13 16 18 20 20 19 19 19 17 15 11 9 12
5 5 5 6 7 8 8 8 8 8 10 11 12 13 14 15 17 20 22 24 23 23 23 22 22 22 23 23 24 24 23 22 21 22 21 19 17 15 14 13 13 13 12 12 12 13 13 12 12 11 10 10 10 10 10 12 13 13 12 11 11 11 12 12 12 12 12 13 14 12 11 12 14 16 18 19 18 18 18 18 17 18 15 10 13
4 6 6 7 11 16 17 14 12 10 8 9 11 12 13 14 16 18 20 23 24 23 23 23 22 21 22 22 22 22 22 21 21 21 20 18 16 14 13 13 13 13 12 12 12 13 13 13 12 10 10 10 10 9 9 11 13 13 12 11 10 9 9 10 10 11 10 10 12 13 12 12 13 15 16 16 16 15 16 19 19 21 20 15 14
4 6 7 7 11 15 16 15 15 13 9 8 9 10 11 13 15 18 20 21 23 23 24 24 22 22 23 23 23 22 22 22 22 20 20 20 18 16 15 14 14 13 12 12 13 14 13 12 12 11 11 11 10 10 10 11 13 13 12 11 9 8 8 9 9 9 9 8 9 11 10 10 11 13 14 13 12 12 12 15 19 23 24 20 16
3 5 6 6 7 11 14 16 16 16 15 13 11 10 12 14 17 20 20 19 20 22 23 24 24 23 24 25 24 24 24 23 22 21 22 21 20 19 17 15 15 13 12 12 14 14 13 12 13 12 12 12 12 11 11 11 12 13 12 10 8 7 7 7 7 7 6 6 6 8 8 8 8 10 11 11 10 10 10 12 16 23 26 23 20
5 5 5 5 5 6 9 11 10 10 13 14 11 12 16 20 23 24 24 21 21 23 24 24 24 23 24 25 24 25 24 23 22 22 22 22 22 21 19 16 14 14 13 13 13 14 14 14 14 14 13 13 13 12 12 11 11 11 10 9 8 8 7 6 5 5 4 3 4 5 6 6 6 8 9 9 9 9 9 10 13 20 23 23 21
7 7 6 6 5 3 5 8 8 7 9 10 11 14 18 20 21 24 26 25 24 24 24 24 24 23 24 26 26 25 24 23 24 23 21 22 23 21 18 16 15 16 16 14 13 15 16 15 15 15 14 14 14 13 12 12 11 9 9 10 10 9 8 6 5 5 3 2 2 3 5 5 5 6 7 7 8 8 8 9 11 16 19 20 18
9 8 8 8 8 8 9 9 8 8 9 11 13 15 16 15 15 18 22 25 25 23 22 24 24 24 25 26 27 25 23 23 23 21 19 21 20 18 17 18 18 19 19 17 16 18 18 16 16 16 15 15 15 14 14 13 12 11 10 12 12 11 9 8 7 6 5 4 3 3 4 4 4 5 7 6 7 8 8 10 12 13 14 15 14
9 10 10 10 9 9 11 12 12 11 10 10 11 13 13 13 14 13 16 22 22 20 23 26 26 25 26 27 26 25 24 22 19 16 16 18 18 18 21 21 20 21 21 19 18 19 19 18 18 19 18 16 16 16 16 16 15 13 12 13 13 12 10 9 8 8 7 7 6 5 4 4 4 4 6 7 7 7 8 9 9 9 10 10 10
11 11 10 10 9 9 11 14 15 15 13 11 10 11 11 10 11 11 13 18 17 19 25 28 27 28 30 30 29 29 28 25 22 19 19 20 22 24 24 23 22 22 22 20 19 19 20 19 20 21 20 19 18 17 17 18 18 15 14 14 14 13 12 11 10 10 10 9 9 8 7 7 6 5 5 6 6 7 7 8 9 9 9 9 9
12 11 9 9 9 9 12 15 17 17 15 13 12 12 11 9 8 9 11 14 15 18 23 23 22 27 31 32 31 31 30 28 28 27 26 25 27 28 26 25 24 23 22 22 21 21 21 21 21 22 21 21 20 19 18 19 19 17 16 15 15 15 14 13 13 13 12 12 12 11 10 9 9 9 8 7 6 7 8 9 9 9 10 10 10
11 10 9 9 9 11 14 17 18 18 16 14 14 14 14 12 10 8 9 12 15 19 21 18 15 20 26 30 30 30 29 29 31 31 30 29 30 29 28 27 25 25 24 23 23 23 23 23 23 23 23 23 23 21 20 20 20 18 17 17 17 17 16 14 14 15 15 15 14 13 13 12 12 11 10 9 8 8 9 9 9 9 10 10 11
10 10 9 10 11 12 15 17 18 20 20 19 18 17 17 17 16 14 11 11 15 18 20 19 16 16 22 25 26 26 28 29 31 31 30 30 30 29 27 26 25 25 25 24 24 25 24 24 24 24 25 24 23 22 21 21 21 19 19 18 18 18 17 16 16 16 16 16 16 15 15 14 14 13 13 12 11 11 10 10 10 9 8 8 8
9 10 10 11 12 12 15 18 20 23 24 22 22 23 22 20 19 18 16 13 13 14 16 16 14 14 16 18 19 21 23 24 25 26 27 27 26 25 25 26 26 26 24 24 26 26 25 25 24 24 24 24 22 22 21 21 21 20 20 19 19 19 18 17 17 17 17 17 17 17 16 16 15 14 14 15 14 14 13 12 11 9 8 6 6
9 10 11 11 11 13 17 20 23 25 25 24 25 27 26 25 24 23 21 19 17 14 12 10 9 10 10 11 14 15 17 19 20 20 21 22 23 23 25 26 26 25 24 24 26 26 25 25 25 25 24 23 22 21 21 21 21 21 20 20 20 20 19 18 18 17 17 17 18 18 18 17 16 15 15 16 16 15 14 12 11 9 8 8 7
9 10 10 10 12 16 20 23 24 25 25 27 28 27 27 28 28 27 27 26 24 21 17 13 10 8 7 6 8 10 11 12 10 10 12 14 15 17 21 24 24 24 23 23 24 26 25 26 27 27 26 24 23 21 20 20 20 20 19 19 19 18 18 18 17 16 16 17 18 19 19 19 19 17 17 16 16 14 13 11 10 9 8 8 8
8 8 9 11 15 18 21 23 23 23 25 28 29 27 28 29 29 29 29 30 30 29 26 23 20 16 11 8 5 4 5 4 3 5 8 7 5 6 11 16 18 19 21 22 24 25 26 26 26 26 25 25 23 21 20 20 20 20 18 18 18 18 18 18 16 15 15 15 17 19 20 20 20 19 17 16 15 14 12 11 10 9 9 8 8
8 10 11 14 16 18 20 22 23 24 26 28 28 29 30 29 29 29 29 31 34 33 32 31 30 27 23 18 15 12 11 9 7 4 5 4 4 6 9 12 12 12 15 19 21 22 23 22 20 19 21 22 21 19 20 21 21 20 18 18 19 19 19 18 15 14 14 14 16 18 19 20 20 18 17 15 14 14 13 12 12 11 11 10 10
12 14 14 15 17 19 21 23 25 26 25 25 27 30 32 32 32 30 29 31 33 32 31 32 32 30 29 27 24 22 21 19 17 13 7 3 2 5 8 11 12 12 13 16 18 20 21 19 17 19 22 22 19 19 20 21 20 19 18 19 20 20 20 18 15 14 14 15 17 18 18 19 18 18 17 16 14 13 13 13 13 13 12 11 11
14 16 17 17 19 22 24 24 26 26 24 24 25 27 30 31 32 31 31 31 31 29 28 29 29 27 27 27 27 26 26 25 24 22 18 13 7 2 3 7 10 11 11 13 17 19 20 18 17 19 21 21 19 19 20 20 19 19 19 20 20 20 19 17 15 15 15 16 17 17 18 18 18 18 18 16 15 14 13 13 13 13 13 13 12
16 17 17 18 18 21 24 25 26 25 23 23 24 26 29 29 29 30 30 29 28 28 27 27 25 24 23 24 24 24 24 25 25 24 23 21 17 12 5 1 5 8 9 10 12 15 16 16 16 18 19 19 19 20 20 20 20 20 20 20 20 19 18 18 17 16 17 18 18 18 18 19 19 19 18 17 15 14 13 13 13 14 15 15 14
16 16 18 19 20 22 24 24 24 22 21 22 23 26 28 26 26 28 27 25 24 24 24 24 23 22 22 22 22 22 22 22 22 21 21 21 20 18 15 11 6 4 5 8 9 11 13 14 15 16 17 17 18 18 18 19 19 19 19 19 18 18 18 18 18 18 18 19 19 20 20 19 19 19 19 18 16 15 14 14 14 15 15 16 15
14 15 18 21 22 23 23 22 21 20 21 21 22 25 26 24 24 25 23 21 21 21 21 21 21 22 22 21 21 21 21 21 20 19 19 19 19 19 17 16 14 11 8 6 6 8 11 13 13 13 13 13 14 14 14 15 16 17 17 18 18 18 18 19 20 20 19 20 21 22 22 20 20 20 20 19 17 16 15 14 14 14 13 15 16
16 17 19 21 22 21 20 19 19 19 19 18 20 23 24 23 24 23 20 19 19 19 19 19 20 21 21 21 21 20 20 20 19 18 18 19 19 18 17 17 16 14 13 13 12 10 9 10 12 13 13 12 12 12 13 14 16 16 16 18 18 18 19 20 21 22 22 22 22 23 23 23 23 21 20 19 17 16 15 14 14 13 13 15 16
17 18 19 20 21 21 20 20 18 17 17 17 19 22 23 24 24 21 17 17 18 18 18 19 20 20 21 20 20 19 19 19 19 19 18 18 18 18 18 17 17 16 15 15 16 15 13 12 12 12 14 14 14 14 14 15 17 17 17 18 18 19 20 22 23 24 25 24 23 24 25 25 25 23 20 19 17 16 15 15 15 14 14 15 15
16 17 18 19 21 22 23 22 20 19 19 18 19 22 23 23 21 17 15 15 16 17 17 19 20 20 20 20 19 19 19 19 19 18 17 17 18 19 18 17 17 18 18 16 16 17 16 15 15 14 13 14 15 17 18 19 18 18 18 18 19 19 20 22 25 26 26 25 25 25 27 27 25 22 20 19 18 17 17 17 16 15 14 14 13
15 17 19 21 22 23 23 23 21 20 20 19 19 20 22 21 18 15 15 15 15 15 17 19 19 19 19 19 17 17 18 19 19 19 18 18 18 18 18 17 16 17 17 17 16 16 16 15 15 16 15 14 14 16 19 21 22 21 20 19 20 21 20 21 25 27 27 27 27 26 27 28 27 24 22 21 20 19 18 17 16 14 13 12 11
16 19 20 21 22 22 22 22 20 18 18 17 17 18 18 17 14 14 14 13 13 14 15 16 17 17 18 17 17 16 16 16 17 17 17 17 17 17 17 17 16 15 16 16 16 16 15 14 14 16 17 17 16 16 17 19 22 23 20 16 15 17 18 19 23 25 25 26 28 29 30 29 26 24 24 23 22 21 19 18 16 14 13 12 11
18 18 19 19 20 20 19 19 18 16 15 15 15 15 15 13 13 13 13 12 12 13 13 14 15 15 15 16 16 15 15 15 15 15 15 15 15 15 16 16 17 17 16 16 16 16 15 13 13 16 18 18 17 18 19 19 20 22 20 16 16 16 15 15 19 21 22 23 25 27 28 26 24 23 23 23 23 22 20 18 17 15 13 12 11
18 17 17 17 17 17 16 16 16 14 14 14 14 13 12 11 11 11 11 11 11 11 11 12 13 13 13 14 14 14 14 14 14 14 14 15 15 15 14 14 15 15 15 15 16 16 15 13 14 17 19 18 17 18 19 19 20 21 20 20 21 20 16 13 14 15 15 15 18 21 23 23 22 22 20 19 19 19 18 18 17 15 15 14 13
16 15 15 14 14 14 14 14 13 12 12 12 13 12 11 11 11 10 10 10 10 10 10 11 11 11 11 11 11 11 12 13 13 13 13 13 14 14 14 13 12 11 12 12 14 15 15 14 14 16 18 20 20 20 19 18 19 22 23 22 20 20 19 14 13 13 11 10 14 20 21 18 16 16 17 17 17 18 17 17 16 16 16 14 12
13 12 11 11 11 10 11 12 11 10 10 11 11 11 11 10 10 9 9 9 8 9 10 11 11 11 11 10 11 11 11 12 12 12 12 12 12 11 12 12 12 11 10 10 12 13 14 14 15 15 16 18 21 22 20 20 20 20 21 21 19 19 20 17 14 17 17 16 19 24 23 19 16 15 15 16 16 17 18 18 18 17 15 12 10
10 9 8 8 7 7 8 10 9 9 9 10 10 10 10 10 9 8 7 7 8 8 10 11 11 12 12 12 13 13 12 12 12 12 12 12 13 12 10 9 10 11 11 10 11 12 12 13 15 17 17 17 19 20 19 19 19 18 18 20 19 17 18 17 17 19 20 21 24 27 27 26 23 20 18 17 16 17 18 19 18 15 12 10 10
Wind_Direction
204 208 211 201 190 185 178 170 161 157 159 161 160 162 164 165 166 169 173 176 177 177 178 179 178 176 176 179 183 185 186 189 192 198 199 197 196 190 183 180 177 172 167 166 170 173 169 167 168 169 173 175 172 166 164 166 161 160 162 169 178 161 144 146 161 153 122 101 91 84 79 77 81 92 96 104 144 181 200 207 209 210 216 212 193
196 204 212 198 187 182 176 164 156 154 156 160 159 161 168 168 167 168 171 174 176 178 179 180 182 180 177 178 182 182 185 193 195 193 190 184 178 172 169 167 167 166 163 164 167 167 164 165 168 167 169 172 171 170 171 171 168 166 163 166 181 177 156 156 165 156 128 120 111 93 80 75 75 80 84 79 86 156 202 206 208 214 221 221 197
192 197 204 194 186 180 172 160 157 156 155 158 158 161 170 171 170 170 171 173 175 179 181 182 184 184 181 180 183 183 184 188 185 175 169 167 165 164 163 162 163 163 159 158 161 162 162 163 165 165 166 170 173 175 173 171 170 170 169 169 177 179 165 160 168 172 147 136 120 104 93 76 71 69 73 74 73 74 85 152 147 190 212 219 214
186 198 203 191 185 178 166 157 157 157 155 157 158 162 170 173 175 173 173 176 178 180 183 183 182 181 182 181 183 181 175 171 167 162 161 162 162 162 162 159 157 154 148 147 152 155 157 156 157 159 158 160 165 166 159 159 163 164 168 175 179 180 173 170 180 198 171 149 123 92 111 95 85 75 73 68 68 69 56 64 94 116 168 197 216
179 194 198 185 182 170 157 155 155 157 160 160 159 163 170 176 178 175 176 179 181 184 185 184 179 175 173 169 166 162 159 161 161 161 164 162 159 156 156 153 147 143 140 141 144 145 146 144 144 145 144 148 151 150 145 144 153 158 162 173 184 189 190 185 193 208 188 170 143 123 111 78 159 146 105 70 62 67 59 66 97 137 149 161 188
182 192 185 173 170 155 152 155 154 157 163 164 164 166 171 176 177 176 178 180 182 184 186 184 181 177 171 162 156 153 155 162 162 160 162 157 153 152 149 145 140 139 138 138 140 140 141 140 140 141 140 143 146 149 149 144 149 158 164 171 184 198 204 199 198 197 191 194 196 174 151 205 165 148 126 81 75 72 63 70 86 99 116 123 132
187 185 158 160 161 152 153 154 154 157 162 167 168 168 171 173 176 178 179 181 181 183 186 186 183 179 174 166 160 157 157 161 160 155 154 153 151 149 144 140 138 139 138 136 139 141 142 141 142 144 143 140 142 151 157 157 162 166 172 177 185 197 205 206 202 188 188 206 223 225 276 188 163 152 146 140 107 80 70 77 80 71 68 71 75
172 172 165 167 165 157 153 151 155 159 160 167 171 170 172 173 175 178 179 181 182 182 185 186 183 178 174 168 162 162 159 157 157 153 152 153 150 146 143 141 141 142 141 139 139 141 146 146 148 152 151 148 149 157 164 173 182 180 181 183 187 193 201 211 206 191 191 198 198 209 198 162 160 155 152 136 114 107 85 85 92 86 78 76 75
151 174 178 177 168 158 155 152 155 160 162 168 171 171 172 172 175 178 180 181 181 179 181 185 184 177 173 169 166 167 164 159 160 157 156 156 152 149 150 149 147 147 149 148 143 145 156 158 158 159 158 159 160 163 170 179 185 181 178 177 178 183 193 209 207 197 199 196 167 146 139 143 140 140 142 126 111 126 119 103 103 94 86 85 91
158 182 189 185 164 154 157 155 154 160 165 168 168 167 169 170 173 177 179 181 179 177 180 183 182 176 173 172 170 169 168 164 164 163 164 165 162 158 157 155 154 155 160 160 154 157 165 165 164 161 162 168 169 170 176 179 176 165 160 164 167 172 180 191 197 200 204 195 172 153 146 141 130 133 141 127 115 114 113 117 104 96 92 88 94
174 183 190 182 156 151 159 158 155 160 164 166 165 164 167 169 172 174 178 181 179 179 182 183 181 176 173 172 171 170 168 164 162 162 166 168 165 162 160 158 157 158 162 163 165 177 173 166 164 163 168 178 179 177 178 176 169 154 146 150 156 164 170 176 182 191 196 191 182 172 166 163 156 164 166 152 137 128 125 114 105 103 97 93 97
186 187 191 179 150 149 158 157 157 162 164 164 163 164 166 169 171 171 174 178 179 182 185 184 183 181 177 175 173 171 168 166 162 160 162 162 160 160 160 159 156 156 159 163 174 184 173 165 165 167 170 176 176 172 170 169 162 151 147 147 149 155 161 167 172 175 183 187 185 185 185 184 184 183 176 166 152 144 137 124 124 119 102 105 111
196 190 188 180 156 148 157 159 161 166 167 163 163 165 167 171 173 171 171 174 178 183 185 184 186 187 184 180 177 173 171 169 163 160 159 158 158 160 161 160 157 155 156 162 172 173 168 167 170 170 163 160 162 162 161 160 155 150 149 144 141 145 151 158 161 160 165 172 175 185 193 192 192 185 179 171 151 143 135 125 127 126 121 125 117
184 175 182 187 176 155 162 167 167 170 171 167 166 168 170 173 175 173 171 173 178 180 182 182 184 188 188 185 181 176 175 174 168 164 161 159 160 161 161 161 160 160 158 160 164 164 164 167 166 163 160 157 157 158 155 152 151 151 146 137 129 130 136 141 141 142 146 153 166 183 192 195 195 185 182 174 156 147 140 133 127 118 124 126 112
167 159 177 192 188 172 172 174 174 171 169 168 170 172 173 174 176 176 173 174 177 178 179 180 181 185 187 186 184 181 180 180 176 172 169 166 164 164 164 163 163 164 163 161 164 166 166 165 164 163 166 173 173 171 170 163 157 154 146 137 128 127 129 130 130 130 132 138 155 171 179 188 188 180 180 177 163 154 149 144 137 128 120 100 97
130 135 168 190 197 193 185 177 175 172 169 173 176 176 174 174 176 179 177 175 176 177 178 179 179 182 184 185 185 183 183 183 180 177 174 171 169 169 171 169 165 164 163 162 165 170 171 170 170 169 171 180 186 188 189 180 172 162 152 144 135 132 130 127 125 125 126 130 138 147 153 160 170 177 177 172 163 157 156 153 145 140 137 106 78
37 61 147 179 198 208 202 178 173 173 171 176 181 180 177 176 178 179 177 174 173 175 176 177 177 180 183 185 185 185 186 186 184 179 175 173 173 175 177 175 170 166 164 163 164 169 173 174 175 173 172 179 186 185 180 176 174 167 158 153 147 144 140 132 127 125 127 131 134 131 132 141 155 170 169 165 162 160 162 163 155 147 142 136 127
35 32 83 148 188 215 221 185 173 172 174 179 183 184 181 180 180 179 175 171 170 171 173 175 179 181 184 185 186 188 189 189 186 182 177 175 174 176 178 177 173 169 168 169 171 172 173 176 178 176 174 177 177 171 165 166 167 165 161 161 160 161 156 144 135 131 128 131 135 130 124 128 142 157 162 162 165 166 169 172 170 160 148 144 151
51 40 39 63 135 170 169 166 162 160 170 177 180 184 184 182 182 178 174 171 169 171 173 176 181 184 186 188 188 189 190 189 187 182 180 178 176 177 180 179 175 174 175 177 180 179 175 176 178 176 175 175 171 166 164 164 164 163 166 167 163 162 159 151 145 140 132 130 133 134 133 132 139 153 161 166 169 171 176 180 183 184 177 166 161
70 73 58 44 49 58 85 123 133 133 153 164 169 178 181 183 181 174 170 170 170 174 176 178 180 183 186 187 188 188 189 189 186 182 182 180 180 183 184 182 178 177 181 184 185 184 179 175 174 175 178 179 177 175 173 170 167 164 165 161 155 152 151 149 149 149 141 133 131 131 137 144 150 159 167 175 182 186 190 195 200 202 200 193 176
92 93 88 80 75 66 65 81 101 107 120 147 164 179 184 181 174 167 166 170 173 176 177 178 179 181 181 181 183 185 186 187 185 183 184 184 184 186 184 183 182 184 189 190 187 185 182 179 177 180 186 187 185 182 179 178 174 169 165 161 158 156 151 146 145 146 143 137 133 131 133 146 157 165 171 180 190 198 205 209 212 210 206 205 193
106 103 101 103 108 106 102 108 122 126 119 129 153 170 170 155 151 162 171 174 175 176 177 178 179 180 180 179 181 183 184 185 183 183 187 188 186 184 181 182 185 188 193 192 184 180 182 186 185 185 185 184 183 179 177 179 178 175 171 167 167 169 163 156 149 143 137 134 137 135 133 143 159 165 168 178 189 197 208 215 215 211 207 207 203
91 91 92 94 108 124 131 136 147 156 158 159 152 138 139 150 162 172 174 172 175 178 180 181 180 179 179 178 179 181 182 183 183 185 190 189 186 184 181 181 185 186 188 187 182 180 186 194 192 185 180 178 181 181 179 179 180 178 177 176 176 177 173 170 165 153 140 132 132 132 130 140 160 167 171 181 190 200 213 220 215 209 207 206 204
67 62 60 65 86 120 131 130 140 156 162 164 154 137 151 172 178 174 171 173 178 181 182 181 177 172 172 172 174 178 180 183 185 186 188 189 189 186 181 179 184 186 182 182 184 186 192 199 199 194 189 186 188 188 187 186 186 189 191 193 193 191 191 191 187 177 156 137 137 136 128 134 159 169 172 182 190 199 214 220 209 203 203 201 200
58 55 46 38 33 43 87 102 112 126 134 138 143 156 170 176 169 164 168 173 176 179 178 173 168 165 167 169 171 172 173 178 181 181 185 189 188 183 180 183 189 187 183 185 189 192 195 202 206 205 200 195 193 193 194 195 199 209 215 212 205 201 207 216 217 212 199 185 181 159 142 139 158 166 164 173 182 183 192 195 188 187 190 190 193
45 43 45 43 31 21 34 56 78 97 116 128 141 163 181 183 173 166 162 163 170 171 159 155 160 161 161 164 166 166 166 168 171 173 178 183 185 185 187 191 194 191 190 192 192 193 199 204 207 208 207 203 201 203 206 206 209 216 220 215 209 208 216 224 226 223 219 219 220 199 172 160 163 166 163 167 173 169 170 172 171 173 178 184 188
43 40 40 39 33 22 24 36 53 73 99 125 142 159 176 186 193 189 166 161 166 155 142 151 162 159 155 159 163 166 162 157 158 166 175 181 189 197 196 194 196 196 197 198 196 196 201 205 207 209 210 211 211 213 213 211 214 219 219 213 210 213 221 224 225 222 221 223 220 216 211 201 195 182 173 175 178 174 169 167 167 170 174 180 184
43 40 36 33 31 22 20 28 38 54 73 95 118 143 157 167 183 189 177 173 165 144 145 157 162 159 159 162 166 172 172 169 172 183 191 193 196 199 197 195 197 199 201 203 203 202 204 207 209 209 210 214 216 216 213 211 215 220 219 215 214 219 223 223 224 223 221 223 223 221 221 218 219 215 197 189 191 190 181 168 164 169 175 177 177
43 38 33 33 33 28 25 26 28 37 51 69 87 109 125 136 157 170 174 176 168 156 159 161 157 158 161 161 165 172 176 180 186 191 195 197 197 198 197 195 196 199 202 205 208 209 210 210 210 210 212 216 218 218 215 213 217 220 220 220 222 224 227 228 229 228 226 226 228 229 228 223 222 222 215 205 200 204 203 187 171 170 177 178 172
45 38 35 35 34 32 30 27 26 28 35 50 64 80 93 97 106 125 147 164 166 166 171 175 171 166 164 165 169 173 177 181 187 191 193 194 195 196 197 198 200 201 203 206 208 212 217 218 218 218 219 220 221 222 219 217 220 222 222 225 227 229 231 235 237 237 237 236 234 234 233 226 221 219 218 211 198 195 201 197 184 177 179 179 173
44 39 34 35 36 33 30 29 28 30 36 43 50 59 69 76 81 86 100 133 153 160 170 181 186 177 172 175 176 178 181 183 187 191 193 193 194 197 201 207 209 206 207 209 211 215 220 223 224 223 222 222 222 222 220 218 220 223 226 230 233 234 236 239 242 243 245 243 239 236 232 228 224 220 216 210 200 192 190 186 179 174 176 182 184
41 38 34 35 34 30 32 34 34 35 38 42 51 57 60 66 74 79 84 101 123 139 157 173 180 176 179 184 184 182 181 181 185 192 195 196 199 203 207 212 213 212 211 213 214 218 223 225 224 222 221 221 222 222 221 222 224 226 229 234 237 239 240 243 244 244 246 246 242 235 227 222 220 218 213 207 200 193 188 183 180 182 190 197 201
43 40 37 36 31 32 39 41 40 42 42 45 55 60 61 65 72 77 83 87 91 101 120 140 154 160 170 185 192 190 184 181 185 191 195 200 205 209 211 212 213 214 215 216 218 223 227 227 224 222 222 222 225 225 225 228 230 229 231 236 239 242 244 244 244 245 247 245 239 229 219 212 211 210 207 203 199 194 190 188 191 196 204 204 200
50 47 44 38 33 38 44 45 45 47 49 52 57 60 63 66 69 72 76 78 78 78 80 84 93 110 127 158 185 194 194 192 190 184 187 195 201 206 211 213 215 217 217 219 223 226 229 230 227 226 226 226 228 229 230 231 232 232 234 237 239 240 242 243 246 248 247 241 232 222 213 207 204 202 202 201 200 197 194 193 193 192 191 190 188
50 53 52 47 44 44 46 47 47 47 50 53 54 55 58 60 62 64 66 70 71 68 64 64 65 68 75 91 116 141 162 174 174 182 198 203 187 189 207 213 216 218 217 220 227 228 228 229 227 225 225 226 228 229 230 231 232 233 234 236 238 240 243 247 249 246 240 233 223 216 211 207 202 198 199 201 199 195 190 183 175 166 162 160 158
55 57 56 55 55 54 53 52 52 52 51 52 53 54 55 54 54 56 58 63 67 64 60 59 58 57 59 66 73 76 78 77 83 124 198 216 188 192 213 218 219 220 216 217 226 231 229 228 227 229 231 231 231 231 231 231 230 231 233 236 239 242 245 248 244 236 230 221 213 210 209 208 203 195 191 190 188 184 178 170 161 152 148 147 143
70 67 64 63 64 64 62 60 57 54 52 53 55 56 55 52 50 48 49 55 60 59 58 58 57 56 57 60 64 68 69 70 70 70 69 76 152 193 215 220 224 229 220 211 217 228 233 234 235 236 237 237 237 237 236 234 232 232 235 237 237 238 241 240 231 225 222 215 210 209 209 206 199 188 182 181 182 182 176 171 167 160 157 155 148
76 74 71 67 67 69 68 65 62 56 53 55 57 56 54 53 50 47 45 48 51 52 54 56 56 55 54 55 59 61 63 64 63 62 61 61 65 93 227 232 234 239 235 222 219 226 234 236 235 236 239 241 241 239 237 237 238 238 238 235 232 233 234 230 223 220 218 214 211 210 207 205 198 188 186 188 188 189 187 184 180 174 169 165 160
72 76 75 68 66 69 69 66 65 61 55 54 56 57 55 52 50 49 45 42 44 47 50 52 52 51 50 50 52 54 55 56 55 54 56 56 57 60 60 295 259 260 259 250 240 238 241 243 242 242 244 246 247 244 242 242 241 238 234 229 226 226 227 224 221 219 214 211 211 208 207 208 205 198 197 197 198 201 203 200 194 187 179 173 168
73 77 78 72 65 62 60 60 64 65 60 55 55 58 56 52 51 51 47 42 42 46 49 51 50 48 47 45 45 47 47 47 46 46 46 47 47 49 52 51 36 342 289 276 272 266 261 257 255 253 252 251 251 252 251 247 239 231 226 221 219 221 222 220 217 215 211 207 206 206 207 208 207 204 202 202 205 211 214 211 203 196 188 179 171
85 82 79 75 70 65 60 57 57 60 60 60 60 60 57 53 51 50 46 43 44 45 47 48 47 46 45 42 41 41 41 40 38 37 36 37 35 33 34 38 39 36 28 3 326 298 284 276 269 266 265 262 257 256 255 245 232 224 219 219 222 224 222 218 214 212 210 206 202 202 203 204 205 204 203 205 207 209 213 215 211 203 194 183 174
87 84 81 79 75 71 66 59 54 56 57 59 62 62 58 54 52 51 49 48 48 45 44 45 45 44 42 39 37 34 34 33 31 28 28 28 26 23 21 21 21 21 23 22 16 1 332 308 293 283 278 274 266 261 252 237 228 225 224 225 230 230 226 220 214 209 207 207 204 202 202 202 203 203 203 205 204 202 205 207 203 194 185 178 173
82 81 80 79 74 69 68 65 64 64 61 58 61 62 57 53 52 50 50 50 49 48 46 46 46 45 42 39 36 31 28 25 22 21 20 17 15 14 14 15 14 12 9 7 7 6 359 346 331 311 293 283 272 261 250 242 237 235 232 229 230 232 230 226 220 215 212 210 207 205 203 201 200 200 202 201 197 194 192 188 184 180 175 172 170
81 79 78 78 77 74 74 72 70 69 66 62 63 64 60 55 52 48 46 45 44 45 45 44 44 42 39 37 35 31 29 25 21 18 14 11 10 9 8 9 8 8 8 4 357 355 353 348 342 332 317 301 282 267 258 252 249 247 241 233 228 227 230 232 230 226 221 216 213 210 207 203 199 198 197 194 189 185 181 177 174 173 171 170 171
75 80 83 85 85 82 78 75 71 68 66 63 62 64 62 58 52 46 43 42 40 39 42 44 43 40 36 32 28 27 26 26 25 23 20 16 12 10 10 10 4 2 5 5 357 351 347 341 334 329 326 319 306 287 270 259 256 255 249 239 231 228 230 232 232 230 227 224 220 215 209 203 197 193 190 184 179 176 174 171 170 169 168 170 174
80 88 92 92 90 86 81 77 71 67 65 61 58 59 59 54 46 39 35 32 30 31 36 39 39 38 35 32 29 26 23 20 20 21 21 18 15 13 13 13 10 7 5 3 356 352 347 337 325 318 315 313 312 308 292 274 265 259 250 241 235 233 234 237 235 232 230 228 222 215 206 197 189 185 185 181 174 171 169 166 165 166 167 170 175
92 96 97 95 91 88 86 84 81 75 71 66 60 58 55 48 39 32 24 18 20 24 27 27 27 27 26 25 25 24 19 15 14 13 12 11 10 10 9 8 8 6 3 360 355 353 354 345 325 317 315 309 302 299 294 282 271 263 256 250 246 242 246 251 244 235 231 229 222 211 200 191 185 185 185 179 170 166 165 162 161 161 161 163 167
95 96 94 92 91 90 88 89 89 85 78 74 70 64 58 48 42 36 27 24 30 33 33 31 26 22 19 18 17 15 11 8 5 2 1 1 0 1 2 5 6 3 358 354 350 348 351 348 333 327 328 321 306 295 289 283 276 270 264 256 246 238 237 247 249 240 233 227 214 197 184 181 183 183 178 171 165 161 160 159 158 157 157 158 160
90 88 86 84 85 88 89 90 92 86 76 73 70 65 57 50 47 42 34 38 48 50 47 43 37 30 27 25 23 21 17 11 4 356 351 349 347 347 347 347 351 354 351 345 341 339 341 339 333 332 332 327 318 308 299 292 286 276 267 259 245 228 220 226 236 234 228 215 198 186 176 170 167 165 166 170 169 163 159 158 159 161 160 158 158
90 82 76 73 74 77 82 87 89 81 70 65 62 55 47 40 37 34 32 39 51 56 54 52 46 42 42 41 37 33 27 20 13 4 355 346 337 334 333 330 330 332 332 330 328 328 329 328 327 327 325 323 322 319 309 299 294 283 266 253 241 227 225 229 225 215 209 200 191 186 181 175 170 169 175 179 172 164 162 163 165 164 159 153 158
92 81 71 66 65 69 79 84 82 72 63 57 50 44 38 32 30 34 38 44 54 60 58 52 43 40 40 36 28 23 17 13 12 11 8 0 349 340 335 331 327 322 319 319 319 318 317 317 317 319 319 316 317 321 315 301 293 286 263 243 235 234 233 223 204 195 194 191 187 184 182 181 181 184 189 190 182 177 176 173 169 165 159 158 170